Weather History for St. Petersburg, FL

Change the Weather History Date:

Saturday, May 24, 2014

  Actual Average Record
Temperature  
Mean Temperature 81 °F -  
Max Temperature 89 °F 86 °F 93 °F (2012)
Min Temperature 75 °F 72 °F 63 °F (1967)
Cooling Degree Days 16    
Growing Degree Days 31 (Base 50)    
Moisture  
Dew Point 72 °F    
Average Humidity 76    
Maximum Humidity 91    
Minimum Humidity 46    
Precipitation  
Precipitation 0.00 in - - ()
Sea Level Pressure  
Sea Level Pressure 30.05 in    
Wind  
Wind Speed 6 mph (WNW)    
Max Wind Speed 12 mph    
Max Gust Speed -    
Visibility 9 miles    
Events      
Averages and records for this station are not official NWS values.
T = Trace of Precipitation, MM = Missing Value Source: NWS Daily Summary

Daily Weather History Graph

Daily Weather History Graph

Search for Another Location

Airport:

Trip Planner

Search our weather history database for the weather conditions in past years. The results will help you decide how hot, cold, wet, or windy it might be!

Date:

Astronomy

May. 24, 2014 Rise Set
Actual Time 6:37 AM EDT 8:17 PM EDT
Civil Twilight 6:11 AM EDT 8:43 PM EDT
Nautical Twilight 5:40 AM EDT 9:15 PM EDT
Astronomical Twilight 5:07 AM EDT 9:47 PM EDT
Moon 3:42 AM EDT (5/24) 4:33 PM EDT (5/24)
Length of Visible Light 14h 32m
Length of Day
13h 40m
Waning Crescent, 18% of the Moon is Illuminated
May 24
Waning Crescent
May 28
New
Jun 5
First Quarter
Jun 13
Full
Jun 19
Last Quarter

Hourly Weather History & Observations

Time (EDT) Temp. Heat Index Dew Point Humidity Pressure Visibility Wind Dir Wind Speed Gust Speed Precip Events Conditions
1:53 AM 77.0 °F - 73.9 °F 90% 30.04 in 9.0 mi NW 8.1 mph - N/A   Clear
2:53 AM 75.9 °F - 73.0 °F 91% 30.03 in 8.0 mi NW 6.9 mph - N/A   Clear
3:53 AM 75.9 °F - 73.0 °F 91% 30.03 in 8.0 mi Calm Calm - N/A   Clear
4:53 AM 75.9 °F - 73.0 °F 91% 30.04 in 8.0 mi Calm Calm - N/A   Clear
5:53 AM 75.9 °F - 73.0 °F 91% 30.04 in 8.0 mi West 5.8 mph - N/A   Clear
6:53 AM 75.9 °F - 73.0 °F 91% 30.05 in 7.0 mi NW 3.5 mph - N/A   Clear
7:53 AM 77.0 °F - 73.0 °F 88% 30.07 in 7.0 mi West 6.9 mph - N/A   Clear
8:53 AM 78.1 °F - 72.0 °F 81% 30.09 in 9.0 mi WNW 6.9 mph - N/A   Clear
9:53 AM 80.1 °F 83.6 °F 71.1 °F 74% 30.10 in 10.0 mi NNW 6.9 mph - N/A   Clear
10:53 AM 82.0 °F 86.3 °F 71.1 °F 69% 30.10 in 10.0 mi Variable 6.9 mph - N/A   Clear
11:53 AM 84.9 °F 91.4 °F 73.0 °F 67% 30.09 in 10.0 mi SE 5.8 mph - N/A   Clear
12:53 PM 84.0 °F 90.2 °F 73.0 °F 69% 30.08 in 10.0 mi ESE 6.9 mph - N/A   Clear
2:53 PM 87.1 °F 90.6 °F 68.0 °F 53% 30.04 in 10.0 mi SSE 5.8 mph - N/A   Clear
3:53 PM 87.1 °F 88.3 °F 64.0 °F 46% 30.02 in 10.0 mi WSW 8.1 mph - N/A   Clear
4:53 PM 84.9 °F 88.8 °F 69.1 °F 59% 30.02 in 10.0 mi West 11.5 mph - N/A   Clear
5:53 PM 84.9 °F 89.4 °F 70.0 °F 61% 30.01 in 10.0 mi West 9.2 mph - N/A   Clear
7:53 PM 82.0 °F 87.4 °F 73.0 °F 74% 30.01 in 10.0 mi NW 10.4 mph - N/A   Clear
8:33 PM 81.0 °F 85.8 °F 73.0 °F 77% 30.02 in 10.0 mi NW 9.2 mph - N/A   Clear
8:34 PM 81.0 °F 85.2 °F 72.0 °F 74% 30.02 in 10.0 mi NNW 8.1 mph - N/A   Clear
8:53 PM 81.0 °F 85.8 °F 73.0 °F 77% 30.02 in 10.0 mi NW 5.8 mph - N/A   Clear
9:53 PM 80.1 °F 84.2 °F 73.0 °F 79% 30.03 in 10.0 mi NW 5.8 mph - N/A   Clear
11:53 PM 80.1 °F 85.1 °F 75.0 °F 85% 30.04 in 8.0 mi Calm Calm - N/A   Scattered Clouds